IAM5YB EGKK-EDHL

Flight info

Callsign IAM5YB
Flight time 1h 12m
Altitude 37000
Route CLN L620 TULIP Y12 SPY N873 ANDIK M105 OPWOT Z612 WSN L23 STADE M170 ELSOB N850 BOGMU BOGMU2V
Aircraft A320/M-SDE3FGHIJ5RWY/LB1

Departure

Time 2026-04-28 11:30
Airport London Gatwick Airport (EGKK)

Arrival

Time 2026-04-28 12:42
Airport Lübeck Blankensee Airport (EDHL)
Time Latitude Longitude Altitude Speed Heading
2026-04-28 10:31 51.15201 -0.18870 205 ft 0 kts 257°
2026-04-28 11:17 51.15204 -0.18853 210 ft 2 kts 257°
2026-04-28 11:17 51.15207 -0.18826 209 ft 2 kts 257°
2026-04-28 11:18 51.15211 -0.18800 207 ft 2 kts 257°
2026-04-28 11:18 51.15215 -0.18773 208 ft 2 kts 257°
2026-04-28 11:18 51.15219 -0.18747 217 ft 2 kts 257°
2026-04-28 11:18 51.15222 -0.18721 214 ft 3 kts 247°
2026-04-28 11:19 51.15232 -0.18697 217 ft 3 kts 211°
2026-04-28 11:19 51.15236 -0.18693 217 ft 0 kts 203°
2026-04-28 11:22 51.15215 -0.18704 214 ft 9 kts 189°
2026-04-28 11:22 51.15149 -0.18696 208 ft 9 kts 197°
2026-04-28 11:22 51.15123 -0.18793 207 ft 10 kts 258°
2026-04-28 11:22 51.15109 -0.18893 210 ft 9 kts 257°
2026-04-28 11:23 51.15097 -0.18982 209 ft 8 kts 258°
2026-04-28 11:23 51.15087 -0.19059 205 ft 7 kts 258°
2026-04-28 11:23 51.15072 -0.19168 212 ft 14 kts 258°
2026-04-28 11:23 51.15044 -0.19366 205 ft 21 kts 257°
2026-04-28 11:24 51.15010 -0.19612 212 ft 24 kts 258°
2026-04-28 11:24 51.14971 -0.19892 214 ft 27 kts 258°
2026-04-28 11:24 51.14933 -0.20174 206 ft 25 kts 258°
2026-04-28 11:24 51.14896 -0.20447 214 ft 22 kts 258°
2026-04-28 11:25 51.14860 -0.20705 205 ft 24 kts 258°
2026-04-28 11:25 51.14823 -0.20967 211 ft 24 kts 258°
2026-04-28 11:25 51.14781 -0.21223 208 ft 22 kts 251°
2026-04-28 11:25 51.14750 -0.21391 210 ft 10 kts 238°
2026-04-28 11:26 51.14692 -0.21396 211 ft 8 kts 161°
2026-04-28 11:26 51.14652 -0.21346 210 ft 7 kts 145°
2026-04-28 11:26 51.14618 -0.21331 211 ft 0 kts 166°
2026-04-28 11:28 51.14611 -0.21328 205 ft 4 kts 165°
2026-04-28 11:29 51.14571 -0.21302 207 ft 6 kts 153°
2026-04-28 11:29 51.14526 -0.21237 214 ft 11 kts 122°
2026-04-28 11:29 51.14528 -0.21119 211 ft 11 kts 78°
2026-04-28 11:29 51.14561 -0.20878 208 ft 47 kts 77°
2026-04-28 11:30 51.14683 -0.20001 212 ft 112 kts 77°
2026-04-28 11:30 51.15124 -0.16775 862 ft 159 kts 75°
2026-04-28 11:30 51.15359 -0.15050 1643 ft 163 kts 74°
2026-04-28 11:31 51.15619 -0.13179 2054 ft 184 kts 75°
2026-04-28 11:31 51.15911 -0.11067 2459 ft 205 kts 75°
2026-04-28 11:31 51.16218 -0.08838 3300 ft 207 kts 76°
2026-04-28 11:31 51.16526 -0.06587 4209 ft 208 kts 77°
2026-04-28 11:32 51.16828 -0.04343 5000 ft 216 kts 79°
2026-04-28 11:32 51.16885 -0.01823 5411 ft 241 kts 90°
2026-04-28 11:32 51.16834 0.00941 6061 ft 255 kts 90°
2026-04-28 11:32 51.16777 0.03800 6896 ft 262 kts 90°
2026-04-28 11:33 51.16719 0.06732 7740 ft 267 kts 90°
2026-04-28 11:33 51.16661 0.09724 8606 ft 272 kts 90°
2026-04-28 11:33 51.16602 0.12772 9456 ft 278 kts 91°
2026-04-28 11:33 51.16544 0.15873 10429 ft 283 kts 90°
2026-04-28 11:34 51.16523 0.19028 11224 ft 287 kts 89°
2026-04-28 11:34 51.16531 0.22230 12052 ft 290 kts 89°
2026-04-28 11:34 51.16547 0.25460 12869 ft 294 kts 89°
2026-04-28 11:34 51.16563 0.28752 13354 ft 298 kts 89°
2026-04-28 11:35 51.16575 0.32058 13470 ft 298 kts 89°
2026-04-28 11:35 51.16584 0.35368 13750 ft 300 kts 90°
2026-04-28 11:35 51.16588 0.38701 14573 ft 302 kts 90°
2026-04-28 11:35 51.16591 0.42062 15309 ft 305 kts 90°
2026-04-28 11:36 51.16592 0.45452 16059 ft 307 kts 90°
2026-04-28 11:36 51.16744 0.48842 16769 ft 309 kts 76°
2026-04-28 11:36 51.17559 0.52006 17477 ft 312 kts 57°
2026-04-28 11:36 51.19025 0.54572 18190 ft 316 kts 38°
2026-04-28 11:37 51.20979 0.56204 18885 ft 321 kts 18°
2026-04-28 11:37 51.23162 0.57058 19496 ft 325 kts 15°
2026-04-28 11:37 51.24619 0.57595 19896 ft 326 kts 15°
2026-04-28 11:37 51.26841 0.58416 20497 ft 329 kts 15°
2026-04-28 11:38 51.29812 0.59517 21308 ft 332 kts 15°
2026-04-28 11:38 51.32082 0.60360 21903 ft 335 kts 15°
2026-04-28 11:38 51.33622 0.60933 22301 ft 337 kts 15°
2026-04-28 11:38 51.35890 0.61779 22891 ft 340 kts 15°
2026-04-28 11:39 51.38204 0.62644 23391 ft 343 kts 15°
2026-04-28 11:39 51.40559 0.63529 23674 ft 355 kts 15°
2026-04-28 11:39 51.43018 0.64464 23824 ft 370 kts 15°
2026-04-28 11:39 51.45582 0.65445 23953 ft 385 kts 15°
2026-04-28 11:40 51.48235 0.66460 24113 ft 397 kts 15°
2026-04-28 11:40 51.50943 0.67492 24462 ft 403 kts 15°
2026-04-28 11:40 51.53685 0.68533 24871 ft 406 kts 15°
2026-04-28 11:40 51.56440 0.69579 25306 ft 409 kts 15°
2026-04-28 11:41 51.59231 0.70641 25743 ft 411 kts 15°
2026-04-28 11:41 51.61988 0.71689 26164 ft 414 kts 15°
2026-04-28 11:41 51.64802 0.72758 26574 ft 416 kts 15°
2026-04-28 11:41 51.67627 0.73829 26990 ft 418 kts 15°
2026-04-28 11:42 51.70473 0.74910 27408 ft 420 kts 15°
2026-04-28 11:42 51.73333 0.76003 27813 ft 423 kts 15°
2026-04-28 11:42 51.76246 0.76791 28199 ft 426 kts 10°
2026-04-28 11:42 51.79100 0.78010 28579 ft 423 kts 28°
2026-04-28 11:43 51.81447 0.80793 28930 ft 421 kts 50°
2026-04-28 11:43 51.83007 0.84771 29279 ft 421 kts 67°
2026-04-28 11:43 51.83883 0.89301 29608 ft 424 kts 77°
2026-04-28 11:43 51.84579 0.93950 29914 ft 427 kts 75°
2026-04-28 11:44 51.85350 0.98608 30243 ft 429 kts 74°
2026-04-28 11:44 51.86155 1.03273 30528 ft 431 kts 74°
2026-04-28 11:44 51.86963 1.07946 30763 ft 434 kts 74°
2026-04-28 11:44 51.87764 1.12660 30983 ft 436 kts 74°
2026-04-28 11:45 51.88541 1.17357 31285 ft 436 kts 75°
2026-04-28 11:45 51.89308 1.22104 31618 ft 436 kts 75°
2026-04-28 11:45 51.90062 1.26854 31947 ft 436 kts 75°
2026-04-28 11:45 51.90813 1.31606 32273 ft 435 kts 75°
2026-04-28 11:46 51.91564 1.36352 32595 ft 435 kts 75°
2026-04-28 11:46 51.92318 1.41108 32924 ft 435 kts 75°
2026-04-28 11:46 51.93071 1.45852 33244 ft 435 kts 75°
2026-04-28 11:46 51.93827 1.50609 33563 ft 435 kts 75°
2026-04-28 11:47 51.94527 1.55050 33865 ft 435 kts 75°
2026-04-28 11:47 51.95089 1.58632 34116 ft 434 kts 75°
2026-04-28 11:47 51.95632 1.62108 34353 ft 434 kts 75°
2026-04-28 11:47 51.96372 1.66854 34616 ft 434 kts 75°
2026-04-28 11:48 51.97125 1.71596 34877 ft 434 kts 74°
2026-04-28 11:48 51.97956 1.76308 35153 ft 434 kts 73°
2026-04-28 11:48 51.98832 1.80919 35421 ft 434 kts 72°
2026-04-28 11:48 51.99748 1.85593 35673 ft 434 kts 72°
2026-04-28 11:49 52.00667 1.90265 35927 ft 434 kts 72°
2026-04-28 11:49 52.01576 1.94951 36164 ft 435 kts 72°
2026-04-28 11:49 52.02467 1.99632 36393 ft 435 kts 72°
2026-04-28 11:49 52.03344 2.04339 36621 ft 435 kts 73°
2026-04-28 11:50 52.04212 2.09049 36851 ft 435 kts 73°
2026-04-28 11:50 52.05074 2.13758 37079 ft 435 kts 73°
2026-04-28 11:50 52.05928 2.18419 37262 ft 436 kts 73°
2026-04-28 11:50 52.06794 2.23152 37315 ft 437 kts 73°
2026-04-28 11:51 52.08523 2.32602 37316 ft 436 kts 73°
2026-04-28 11:51 52.10244 2.42069 37309 ft 436 kts 73°
2026-04-28 11:52 52.11969 2.51541 37310 ft 435 kts 72°
2026-04-28 11:52 52.13761 2.60958 37313 ft 435 kts 72°
2026-04-28 11:53 52.15559 2.70307 37316 ft 435 kts 72°
2026-04-28 11:53 52.17346 2.79718 37320 ft 435 kts 72°
2026-04-28 11:54 52.19124 2.89144 37321 ft 435 kts 72°
2026-04-28 11:54 52.20883 2.98565 37318 ft 434 kts 72°
2026-04-28 11:55 52.22636 3.07987 37317 ft 434 kts 72°
2026-04-28 11:55 52.24375 3.17401 37317 ft 434 kts 73°
2026-04-28 11:56 52.26109 3.26843 37312 ft 433 kts 73°
2026-04-28 11:56 52.27843 3.36267 37310 ft 433 kts 73°
2026-04-28 11:57 52.29567 3.45685 37309 ft 433 kts 73°
2026-04-28 11:57 52.31281 3.55106 37307 ft 432 kts 73°
2026-04-28 11:58 52.32987 3.64529 37318 ft 432 kts 73°
2026-04-28 11:58 52.34668 3.73896 37317 ft 432 kts 73°
2026-04-28 11:59 52.36352 3.83335 37316 ft 432 kts 73°
2026-04-28 11:59 52.38029 3.92812 37316 ft 433 kts 73°
2026-04-28 12:00 52.39709 4.02275 37322 ft 432 kts 73°
2026-04-28 12:00 52.41380 4.11742 37320 ft 432 kts 73°
2026-04-28 12:01 52.43030 4.21138 37317 ft 432 kts 73°
2026-04-28 12:01 52.44677 4.30630 37310 ft 432 kts 73°
2026-04-28 12:02 52.46313 4.40125 37308 ft 432 kts 73°
2026-04-28 12:02 52.47950 4.49614 37300 ft 432 kts 73°
2026-04-28 12:03 52.49568 4.59045 37301 ft 432 kts 73°
2026-04-28 12:03 52.51196 4.68586 37301 ft 432 kts 73°
2026-04-28 12:04 52.52790 4.78025 37304 ft 431 kts 73°
2026-04-28 12:04 52.55025 4.87115 37308 ft 429 kts 58°
2026-04-28 12:05 52.58624 4.94929 37320 ft 429 kts 51°
2026-04-28 12:05 52.62324 5.02626 37334 ft 428 kts 52°
2026-04-28 12:06 52.66010 5.10345 37334 ft 428 kts 52°
2026-04-28 12:06 52.69657 5.18014 37333 ft 428 kts 52°
2026-04-28 12:07 52.73242 5.25847 37330 ft 428 kts 58°
2026-04-28 12:07 52.75631 5.34806 37331 ft 428 kts 69°
2026-04-28 12:08 52.77634 5.44065 37329 ft 428 kts 69°
2026-04-28 12:08 52.79623 5.53345 37326 ft 428 kts 69°
2026-04-28 12:09 52.81605 5.62633 37323 ft 428 kts 69°
2026-04-28 12:09 52.83583 5.71918 37325 ft 428 kts 69°
2026-04-28 12:10 52.85559 5.81204 37325 ft 428 kts 69°
2026-04-28 12:10 52.87524 5.90519 37328 ft 429 kts 69°
2026-04-28 12:11 52.89478 5.99840 37331 ft 429 kts 69°
2026-04-28 12:11 52.91430 6.09177 37331 ft 429 kts 69°
2026-04-28 12:12 52.93382 6.18544 37334 ft 429 kts 69°
2026-04-28 12:12 52.95311 6.27862 37338 ft 430 kts 69°
2026-04-28 12:13 52.97245 6.37256 37339 ft 430 kts 69°
2026-04-28 12:13 52.99176 6.46643 37335 ft 430 kts 69°
2026-04-28 12:14 53.01097 6.56044 37333 ft 430 kts 69°
2026-04-28 12:14 53.03012 6.65468 37337 ft 430 kts 69°
2026-04-28 12:15 53.04908 6.74840 37343 ft 431 kts 70°
2026-04-28 12:15 53.06802 6.84287 37346 ft 431 kts 70°
2026-04-28 12:16 53.08699 6.93770 37349 ft 432 kts 70°
2026-04-28 12:16 53.10593 7.03254 37361 ft 432 kts 70°
2026-04-28 12:17 53.12477 7.12765 37379 ft 432 kts 70°
2026-04-28 12:17 53.14357 7.22290 37380 ft 433 kts 70°
2026-04-28 12:18 53.16227 7.31817 37384 ft 433 kts 70°
2026-04-28 12:18 53.18087 7.41358 37383 ft 433 kts 70°
2026-04-28 12:19 53.19946 7.50906 37382 ft 433 kts 70°
2026-04-28 12:19 53.21792 7.60447 37384 ft 432 kts 70°
2026-04-28 12:20 53.23634 7.70015 37383 ft 433 kts 70°
2026-04-28 12:20 53.25467 7.79591 37379 ft 433 kts 70°
2026-04-28 12:21 53.27297 7.89176 37379 ft 433 kts 70°
2026-04-28 12:21 53.29105 7.98709 37385 ft 433 kts 70°
2026-04-28 12:22 53.30921 8.08310 37384 ft 433 kts 70°
2026-04-28 12:22 53.31826 8.13124 37254 ft 434 kts 70°
2026-04-28 12:22 53.32736 8.17941 36991 ft 433 kts 69°
2026-04-28 12:23 53.33726 8.22694 36735 ft 431 kts 67°
2026-04-28 12:23 53.34792 8.27372 36485 ft 430 kts 66°
2026-04-28 12:23 53.35906 8.32024 36234 ft 429 kts 65°
2026-04-28 12:23 53.37028 8.36652 35993 ft 429 kts 65°
2026-04-28 12:24 53.38139 8.41290 35743 ft 428 kts 66°
2026-04-28 12:24 53.39042 8.46060 35491 ft 431 kts 75°
2026-04-28 12:24 53.39450 8.51044 34964 ft 436 kts 84°
2026-04-28 12:24 53.39442 8.54439 34315 ft 443 kts 91°
2026-04-28 12:25 53.38955 8.59573 33301 ft 450 kts 101°
2026-04-28 12:25 53.38166 8.64656 32394 ft 451 kts 101°
2026-04-28 12:25 53.37138 8.71340 31620 ft 443 kts 101°
2026-04-28 12:25 53.36380 8.76318 30975 ft 440 kts 101°
2026-04-28 12:26 53.35906 8.79673 30543 ft 437 kts 97°
2026-04-28 12:26 53.35620 8.84671 29853 ft 429 kts 87°
2026-04-28 12:26 53.35855 8.89603 29272 ft 420 kts 77°
2026-04-28 12:26 53.36564 8.94301 28700 ft 412 kts 68°
2026-04-28 12:27 53.37655 8.98693 28131 ft 406 kts 64°
2026-04-28 12:27 53.38787 9.03009 27571 ft 403 kts 64°
2026-04-28 12:27 53.39904 9.07283 27017 ft 399 kts 64°
2026-04-28 12:27 53.40995 9.11481 26482 ft 396 kts 64°
2026-04-28 12:28 53.42157 9.15643 25710 ft 396 kts 56°
2026-04-28 12:28 53.43834 9.19349 24678 ft 403 kts 48°
2026-04-28 12:28 53.45646 9.22961 23939 ft 404 kts 48°
2026-04-28 12:28 53.47450 9.26537 23418 ft 398 kts 47°
2026-04-28 12:29 53.50971 9.33524 22459 ft 387 kts 48°
2026-04-28 12:29 53.52697 9.36955 21987 ft 382 kts 48°
2026-04-28 12:29 53.54403 9.40351 21512 ft 378 kts 48°
2026-04-28 12:30 53.56081 9.43700 21037 ft 375 kts 48°
2026-04-28 12:30 53.57754 9.47048 20576 ft 372 kts 48°
2026-04-28 12:30 53.59408 9.50366 19945 ft 373 kts 48°
2026-04-28 12:30 53.61084 9.53728 19258 ft 377 kts 48°
2026-04-28 12:31 53.62764 9.57105 18738 ft 375 kts 48°
2026-04-28 12:31 53.64435 9.60470 18195 ft 373 kts 48°
2026-04-28 12:31 53.66094 9.63813 17671 ft 370 kts 48°
2026-04-28 12:31 53.67736 9.67128 17162 ft 367 kts 48°
2026-04-28 12:32 53.69357 9.70408 16902 ft 358 kts 48°
2026-04-28 12:32 53.70923 9.73576 16753 ft 346 kts 48°
2026-04-28 12:32 53.72436 9.76645 16180 ft 336 kts 48°
2026-04-28 12:32 53.73925 9.79671 15404 ft 333 kts 48°
2026-04-28 12:33 53.75394 9.82656 14651 ft 329 kts 48°
2026-04-28 12:33 53.76848 9.85611 13886 ft 325 kts 48°
2026-04-28 12:33 53.78286 9.88541 13075 ft 321 kts 49°
2026-04-28 12:33 53.79449 9.91644 12547 ft 310 kts 64°
2026-04-28 12:34 53.79949 9.95266 11342 ft 326 kts 86°
2026-04-28 12:34 53.79717 9.99087 10188 ft 335 kts 96°
2026-04-28 12:34 53.79363 10.02988 9105 ft 334 kts 96°
2026-04-28 12:34 53.79017 10.06830 8178 ft 326 kts 96°
2026-04-28 12:35 53.78687 10.10507 7877 ft 302 kts 95°
2026-04-28 12:35 53.78387 10.13868 7730 ft 276 kts 95°
2026-04-28 12:35 53.78112 10.16969 7359 ft 263 kts 95°
2026-04-28 12:35 53.77848 10.20027 6705 ft 263 kts 95°
2026-04-28 12:36 53.77583 10.23066 6099 ft 259 kts 95°
2026-04-28 12:36 53.77320 10.26052 5464 ft 255 kts 95°
2026-04-28 12:36 53.77058 10.28998 4852 ft 251 kts 96°
2026-04-28 12:36 53.76801 10.31903 4269 ft 249 kts 96°
2026-04-28 12:37 53.76546 10.34734 3976 ft 235 kts 96°
2026-04-28 12:37 53.76311 10.37338 3859 ft 218 kts 96°
2026-04-28 12:37 53.76085 10.39841 3731 ft 208 kts 95°
2026-04-28 12:37 53.75877 10.42165 3596 ft 197 kts 95°
2026-04-28 12:38 53.75677 10.44394 3417 ft 189 kts 95°
2026-04-28 12:38 53.75645 10.46584 3102 ft 183 kts 76°
2026-04-28 12:38 53.76009 10.48619 2820 ft 182 kts 69°
2026-04-28 12:38 53.76404 10.50624 2556 ft 174 kts 69°
2026-04-28 12:39 53.76770 10.52501 2316 ft 161 kts 69°
2026-04-28 12:39 53.77110 10.54245 2134 ft 152 kts 69°
2026-04-28 12:39 53.77426 10.55874 1924 ft 140 kts 69°
2026-04-28 12:39 53.77731 10.57438 1734 ft 140 kts 69°
2026-04-28 12:40 53.78026 10.58957 1513 ft 133 kts 68°
2026-04-28 12:40 53.78311 10.60420 1340 ft 130 kts 69°
2026-04-28 12:40 53.78591 10.61869 1141 ft 129 kts 69°
2026-04-28 12:40 53.78870 10.63309 987 ft 129 kts 69°
2026-04-28 12:41 53.79140 10.64743 804 ft 127 kts 70°
2026-04-28 12:41 53.79415 10.66165 678 ft 127 kts 69°
2026-04-28 12:41 53.79689 10.67598 523 ft 128 kts 73°
2026-04-28 12:41 53.79951 10.69039 290 ft 127 kts 70°
2026-04-28 12:42 53.80244 10.70443 89 ft 127 kts 70°
2026-04-28 12:42 53.80478 10.71640 60 ft 64 kts 72°
2026-04-28 12:42 53.80533 10.71935 52 ft 15 kts 72°
2026-04-28 12:42 53.80582 10.71935 61 ft 7 kts 302°
2026-04-28 12:43 53.80600 10.71868 59 ft 6 kts 292°
2026-04-28 12:43 53.80619 10.71790 55 ft 7 kts 292°
2026-04-28 12:43 53.80620 10.71788 55 ft 0 kts 292°
2026-04-28 12:44 53.80627 10.71758 59 ft 6 kts 293°
2026-04-28 12:44 53.80659 10.71609 61 ft 16 kts 282°
2026-04-28 12:44 53.80636 10.71430 60 ft 16 kts 251°
2026-04-28 12:45 53.80604 10.71263 55 ft 14 kts 251°
2026-04-28 12:45 53.80574 10.71108 54 ft 14 kts 252°
2026-04-28 12:45 53.80547 10.70962 55 ft 13 kts 252°
2026-04-28 12:45 53.80521 10.70824 60 ft 13 kts 252°
2026-04-28 12:46 53.80488 10.70655 55 ft 17 kts 251°
2026-04-28 12:46 53.80455 10.70485 60 ft 8 kts 251°
2026-04-28 12:46 53.80438 10.70396 59 ft 6 kts 252°
2026-04-28 12:46 53.80454 10.70349 57 ft 5 kts 327°
2026-04-28 12:47 53.80477 10.70335 59 ft 0 kts 339°